星链-3191 (STARLINK-3191 )

导读 | 星芒AI

STARLINK-3191 是 SpaceX Starlink 项目中的一颗低轨通信卫星,属于第三代星链卫星(v1.5 或 v2 版本)。该卫星于 2023 年发射,旨在为全球提供高速互联网服务。它运行在约 550 公里的轨道高度,采用先进的推进系统和激光通信技术,以提高网络稳定性和减少延迟。STARLINK-3191 是 SpaceX 构建全球宽带网络计划的一部分,支持偏远地区和高需求区域的互联网接入。

基本信息
目录编号:
49770
目录名称:
STARLINK-3191
国际标识:
2021-115AY
轨道中心:
EARTH
卫星名称:
星链-3191
卫星全名:
星链-3191 (STARLINK-3191 )
卫星状态:
在轨 (已飞行1479 天)
发射日期:
2021-12-02 UTC
国别 :
美国 (US)
星等 :
--
轨道信息
数据来源 国际轨道数据 AOE轨道数据
星历时间 2025-12-19T17:16:51+0800
18小时前
查看轨道信息
2025-12-14T03:00:00+0800
6天前
查看轨道信息
半长轴 6917.915km 6917.869km
偏心率 0.0001033 0.0001675
轨道倾角 53.217° 53.217°
近地点辐角 82.426° 78.161°
升交点赤经 139.662° 164.778°
平近点角 277.685° 114.288°
近地点 539.063km 538.575km
远地点 540.493km 540.893km
周期 95.438分钟 95.437分钟
每日圈数 15.088287 15.088438
详细信息
固有亮度:
5
最大亮度:
2.5
卫星平台:
Starlink v1.5
覆盖范围:
全球
运营商:
太空探索技术公司
运营商所在国:
美国
制造商(研发单位):
太空探索技术公司
制造商所在国:
美国
使用方式:
暂无
卫星简介
星链(Starlink)计划是由太空探索技术公司(SpaceX)提出的一个巨型低轨卫星互联网星座项目,计划在2019年至2024年间在太空搭建由约1.2万颗卫星组成的“星链”网络,其中1584颗将部署在地球上空550千米处的近地轨道,并从2020年开始工作。该卫星仍在工作。
2D轨道图
3D轨道图
轨道高度分析图
轨道倾角分析图
轨道综合分析图
查看轨道综合分析图